• In Netherlands
  • List of Countries
  • For 7 days
  • Water Temperature
  • Satellite Maps
  • Weather Map
  • Weather Widgets
  • user-avatar
    Login

    Hourly Weather San Juan

    Today, 24 August, Thursday

    Time Temperature Precipitation Wind Pressure Humidity
    00:00 +14°C° 0 mm 4 mps 702 mmHg 24%
    01:00 +14°C° 0 mm 4 mps 702 mmHg 24%
    02:00 +14°C° 0 mm 4 mps 701 mmHg 24%
    03:00 +13°C° 0 mm 4 mps 701 mmHg 24%
    04:00 +13°C° 0 mm 4 mps 701 mmHg 23%
    05:00 +14°C° 0 mm 4 mps 701 mmHg 22%
    06:00 +14°C° 0 mm 4 mps 701 mmHg 21%
    07:00 +15°C° 0 mm 4 mps 701 mmHg 20%
    08:00 +17°C° 0 mm 5 mps 701 mmHg 16%
    09:00 +21°C° 0 mm 6 mps 701 mmHg 12%
    10:00 +24°C° 0 mm 7 mps 701 mmHg 9%
    11:00 +27°C° 0 mm 7 mps 700 mmHg 7%
    12:00 +28°C° 0 mm 8 mps 700 mmHg 5%
    13:00 +31°C° 0 mm 8 mps 699 mmHg 4%
    14:00 +31°C° 0 mm 8 mps 699 mmHg 4%
    15:00 +31°C° 0 mm 8 mps 699 mmHg 3%
    16:00 +30°C° 0 mm 7 mps 699 mmHg 3%
    17:00 +27°C° 0 mm 6 mps 699 mmHg 5%
    18:00 +25°C° 0 mm 5 mps 700 mmHg 6%
    19:00 +22°C° 0 mm 4 mps 700 mmHg 8%
    20:00 +21°C° 0 mm 4 mps 701 mmHg 9%
    21:00 +20°C° 0 mm 3 mps 701 mmHg 11%
    22:00 +19°C° 0 mm 3 mps 701 mmHg 12%
    23:00 +18°C° 0 mm 3 mps 701 mmHg 13%

    Tomorrow, 25 August, Friday

    Time Temperature Precipitation Wind Pressure Humidity
    00:00 +17°C° 0 mm 3 mps 701 mmHg 14%
    01:00 +16°C° 0 mm 3 mps 701 mmHg 15%
    02:00 +14°C° 0 mm 3 mps 701 mmHg 16%
    03:00 +14°C° 0 mm 3 mps 701 mmHg 17%
    04:00 +13°C° 0 mm 3 mps 701 mmHg 18%
    05:00 +13°C° 0 mm 4 mps 702 mmHg 20%
    06:00 +13°C° 0 mm 4 mps 703 mmHg 21%
    07:00 +13°C° 0 mm 4 mps 704 mmHg 23%
    08:00 +14°C° 0 mm 5 mps 704 mmHg 26%
    09:00 +15°C° 0 mm 6 mps 704 mmHg 30%
    10:00 +16°C° 0 mm 6 mps 705 mmHg 33%
    11:00 +17°C° 0 mm 6 mps 705 mmHg 32%
    12:00 +19°C° 0 mm 6 mps 704 mmHg 31%
    13:00 +20°C° 0 mm 6 mps 704 mmHg 30%
    14:00 +19°C° 0 mm 6 mps 704 mmHg 33%
    15:00 +19°C° 0 mm 6 mps 705 mmHg 35%
    16:00 +17°C° 0 mm 6 mps 705 mmHg 37%
    17:00 +16°C° 0 mm 6 mps 706 mmHg 41%
    18:00 +15°C° 0 mm 5 mps 707 mmHg 45%
    19:00 +14°C° 0 mm 5 mps 708 mmHg 49%
    20:00 +13°C° 0 mm 4 mps 708 mmHg 52%
    21:00 +12°C° 0 mm 3 mps 708 mmHg 55%
    22:00 +12°C° 0 mm 3 mps 709 mmHg 59%
    23:00 +12°C° 0 mm 2 mps 708 mmHg 61%

    Day after tomorrow, 26 August, Saturday

    Time Temperature Precipitation Wind Pressure Humidity
    00:00 +12°C° 0 mm 2 mps 708 mmHg 62%
    01:00 +10°C° 0 mm 2 mps 708 mmHg 64%
    02:00 +10°C° 0 mm 2 mps 707 mmHg 65%
    03:00 +9°C° 0 mm 2 mps 707 mmHg 67%
    04:00 +9°C° 0 mm 2 mps 707 mmHg 68%
    05:00 +9°C° 0 mm 2 mps 707 mmHg 66%
    06:00 +10°C° 0 mm 2 mps 708 mmHg 64%
    07:00 +10°C° 0 mm 2 mps 708 mmHg 62%
    08:00 +13°C° 0 mm 2 mps 708 mmHg 56%
    09:00 +14°C° 0 mm 2 mps 708 mmHg 50%
    10:00 +15°C° 0 mm 2 mps 707 mmHg 44%
    11:00 +17°C° 0 mm 2 mps 706 mmHg 38%
    12:00 +18°C° 0 mm 2 mps 706 mmHg 33%
    13:00 +20°C° 0 mm 2 mps 705 mmHg 28%
    14:00 +20°C° 0 mm 2 mps 705 mmHg 27%
    15:00 +20°C° 0 mm 2 mps 704 mmHg 25%
    16:00 +21°C° 0 mm 2 mps 704 mmHg 24%
    17:00 +19°C° 0 mm 2 mps 705 mmHg 28%
    18:00 +19°C° 0 mm 1 mps 705 mmHg 32%
    19:00 +18°C° 0 mm 1 mps 705 mmHg 35%
    20:00 +16°C° 0 mm 1 mps 705 mmHg 36%
    21:00 +16°C° 0 mm 2 mps 705 mmHg 36%
    22:00 +16°C° 0 mm 2 mps 705 mmHg 36%
    23:00 +16°C° 0 mm 2 mps 705 mmHg 34%

    27 August, Sunday

    Time Temperature Precipitation Wind Pressure Humidity
    00:00 +14°C° 0 mm 3 mps 704 mmHg 33%
    01:00 +14°C° 0 mm 3 mps 704 mmHg 31%
    02:00 +14°C° 0 mm 3 mps 704 mmHg 32%
    03:00 +14°C° 0 mm 3 mps 704 mmHg 32%
    04:00 +14°C° 0 mm 3 mps 703 mmHg 32%
    05:00 +14°C° 0 mm 3 mps 704 mmHg 32%
    06:00 +16°C° 0 mm 3 mps 704 mmHg 31%
    07:00 +16°C° 0 mm 3 mps 704 mmHg 30%
    08:00 +19°C° 0 mm 4 mps 704 mmHg 26%
    09:00 +21°C° 0 mm 4 mps 704 mmHg 22%
    10:00 +23°C° 0 mm 5 mps 704 mmHg 18%
    11:00 +26°C° 0 mm 5 mps 704 mmHg 15%
    12:00 +27°C° 0 mm 6 mps 704 mmHg 12%
    13:00 +29°C° 0 mm 6 mps 703 mmHg 9%
    14:00 +29°C° 0 mm 6 mps 703 mmHg 8%
    15:00 +29°C° 0 mm 6 mps 703 mmHg 8%
    16:00 +29°C° 0 mm 6 mps 703 mmHg 8%
    17:00 +27°C° 0 mm 5 mps 703 mmHg 10%
    18:00 +25°C° 0 mm 4 mps 704 mmHg 12%
    19:00 +22°C° 0 mm 3 mps 704 mmHg 14%
    20:00 +21°C° 0 mm 3 mps 704 mmHg 16%
    21:00 +20°C° 0 mm 3 mps 704 mmHg 17%
    22:00 +19°C° 0 mm 3 mps 704 mmHg 18%
    23:00 +19°C° 0 mm 3 mps 704 mmHg 20%

    28 August, Monday

    Time Temperature Precipitation Wind Pressure Humidity
    00:00 +18°C° 0 mm 3 mps 703 mmHg 21%
    01:00 +18°C° 0 mm 3 mps 703 mmHg 22%
    02:00 +17°C° 0 mm 3 mps 703 mmHg 23%
    03:00 +17°C° 0 mm 3 mps 703 mmHg 25%
    04:00 +17°C° 0 mm 2 mps 703 mmHg 27%
    05:00 +17°C° 0 mm 2 mps 703 mmHg 26%
    06:00 +17°C° 0 mm 2 mps 704 mmHg 25%
    07:00 +17°C° 0 mm 2 mps 704 mmHg 25%
    08:00 +19°C° 0 mm 3 mps 704 mmHg 24%
    09:00 +20°C° 0 mm 3 mps 704 mmHg 24%
    10:00 +22°C° 0 mm 4 mps 704 mmHg 24%
    11:00 +23°C° 0 mm 4 mps 703 mmHg 22%
    12:00 +25°C° 0 mm 5 mps 703 mmHg 19%
    13:00 +26°C° 0 mm 5 mps 702 mmHg 17%
    14:00 +27°C° 0 mm 5 mps 702 mmHg 15%
    15:00 +27°C° 0 mm 5 mps 702 mmHg 14%
    16:00 +27°C° 0 mm 5 mps 702 mmHg 12%
    17:00 +25°C° 0 mm 4 mps 702 mmHg 16%
    18:00 +22°C° 0 mm 3 mps 703 mmHg 20%
    19:00 +21°C° 0 mm 3 mps 703 mmHg 25%
    20:00 +20°C° 0 mm 3 mps 703 mmHg 32%
    21:00 +19°C° 0 mm 3 mps 703 mmHg 39%
    22:00 +17°C° 0 mm 3 mps 703 mmHg 46%
    23:00 +17°C° 0 mm 3 mps 703 mmHg 47%

    29 August, Tuesday

    Time Temperature Precipitation Wind Pressure Humidity
    00:00 +17°C° 0 mm 3 mps 703 mmHg 49%
    01:00 +16°C° 0 mm 3 mps 703 mmHg 50%
    02:00 +16°C° 0 mm 3 mps 702 mmHg 50%
    03:00 +14°C° 0 mm 3 mps 702 mmHg 50%
    04:00 +14°C° 0 mm 3 mps 702 mmHg 50%
    05:00 +14°C° 0 mm 3 mps 703 mmHg 47%
    06:00 +16°C° 0 mm 3 mps 703 mmHg 44%
    07:00 +16°C° 0 mm 3 mps 704 mmHg 41%
    08:00 +18°C° 0 mm 3 mps 703 mmHg 36%
    09:00 +20°C° 0 mm 3 mps 703 mmHg 32%
    10:00 +22°C° 0 mm 4 mps 703 mmHg 27%
    11:00 +23°C° 0 mm 4 mps 702 mmHg 23%
    12:00 +26°C° 0 mm 5 mps 702 mmHg 18%
    13:00 +28°C° 0 mm 6 mps 702 mmHg 13%
    14:00 +28°C° 0 mm 6 mps 702 mmHg 13%
    15:00 +28°C° 0 mm 6 mps 702 mmHg 12%
    16:00 +28°C° 0 mm 6 mps 702 mmHg 12%
    17:00 +25°C° 0 mm 5 mps 702 mmHg 20%
    18:00 +22°C° 0 mm 5 mps 703 mmHg 27%
    19:00 +20°C° 0 mm 5 mps 704 mmHg 35%
    20:00 +17°C° 0 mm 5 mps 704 mmHg 46%
    21:00 +16°C° 0 mm 5 mps 704 mmHg 57%
    22:00 +15°C° 0 mm 5 mps 705 mmHg 68%
    23:00 +14°C° 0 mm 5 mps 705 mmHg 69%
    Show more